When you browse on this site, cookies collect data to enhance your experience and personalize the content and advertising you see.
Visit our Privacy Policy to learn more. By continuing to use the site, you agree to this use of cookies and data.
  • Em Portugal
  • Lista de países
  • Para 7 dias
  • Temperatura da água
  • Mapa do tempo
  • Widgets de tempo
  • user-avatar
    Iniciar Sessão

    Previsão horária em Ryazhik

    Hoje, 29 Maio, Sexta-feira

    Tempo Temperatura Precipitação Vento Pressão Humidade
    00:00 +10°C° 0 mm 2 m/s 744 mmHg 83%
    01:00 +9°C° 0 mm 2 m/s 744 mmHg 85%
    02:00 +10°C° 0 mm 2 m/s 744 mmHg 85%
    03:00 +10°C° 0 mm 2 m/s 745 mmHg 85%
    04:00 +10°C° 0 mm 3 m/s 745 mmHg 82%
    05:00 +12°C° 0 mm 3 m/s 745 mmHg 74%
    06:00 +14°C° 0 mm 3 m/s 745 mmHg 67%
    07:00 +15°C° 0 mm 4 m/s 745 mmHg 59%
    08:00 +18°C° 0 mm 4 m/s 744 mmHg 54%
    09:00 +19°C° 0 mm 4 m/s 744 mmHg 49%
    10:00 +20°C° 0 mm 4 m/s 744 mmHg 44%
    11:00 +20°C° 0 mm 4 m/s 744 mmHg 44%
    12:00 +21°C° 0 mm 4 m/s 744 mmHg 43%
    13:00 +21°C° 0 mm 4 m/s 744 mmHg 42%
    14:00 +21°C° 0 mm 4 m/s 744 mmHg 44%
    15:00 +20°C° 0 mm 3 m/s 744 mmHg 46%
    16:00 +20°C° 0 mm 3 m/s 744 mmHg 49%
    17:00 +19°C° 0 mm 3 m/s 744 mmHg 53%
    18:00 +19°C° 0 mm 2 m/s 744 mmHg 57%
    19:00 +18°C° 0 mm 2 m/s 744 mmHg 61%
    20:00 +17°C° 0 mm 2 m/s 744 mmHg 66%
    21:00 +16°C° 0 mm 2 m/s 744 mmHg 70%
    22:00 +14°C° 0 mm 2 m/s 744 mmHg 74%
    23:00 +13°C° 0 mm 2 m/s 744 mmHg 76%

    Amanhã, 30 Maio, Sábado

    Tempo Temperatura Precipitação Vento Pressão Humidade
    00:00 +13°C° 0 mm 2 m/s 744 mmHg 77%
    01:00 +12°C° 0 mm 2 m/s 743 mmHg 79%
    02:00 +12°C° 0 mm 2 m/s 743 mmHg 79%
    03:00 +12°C° 0 mm 2 m/s 744 mmHg 79%
    04:00 +12°C° 0 mm 2 m/s 744 mmHg 80%
    05:00 +14°C° 0 mm 2 m/s 744 mmHg 74%
    06:00 +16°C° 0 mm 3 m/s 743 mmHg 69%
    07:00 +18°C° 0 mm 3 m/s 743 mmHg 63%
    08:00 +19°C° 0 mm 3 m/s 743 mmHg 60%
    09:00 +19°C° 0 mm 4 m/s 743 mmHg 58%
    10:00 +20°C° 0 mm 4 m/s 742 mmHg 55%
    11:00 +20°C° 0 mm 4 m/s 742 mmHg 58%
    12:00 +19°C° 0 mm 3 m/s 742 mmHg 62%
    13:00 +19°C° 0 mm 3 m/s 742 mmHg 65%
    14:00 +18°C° 0 mm 3 m/s 742 mmHg 68%
    15:00 +17°C° 0 mm 3 m/s 742 mmHg 72%
    16:00 +17°C° 0 mm 2 m/s 742 mmHg 75%
    17:00 +16°C° 0.2 mm 2 m/s 741 mmHg 80%
    18:00 +15°C° 0.2 mm 1 m/s 741 mmHg 86%
    19:00 +14°C° 0.2 mm 1 m/s 741 mmHg 91%
    20:00 +13°C° 0.2 mm 1 m/s 741 mmHg 93%
    21:00 +13°C° 0.2 mm 1 m/s 741 mmHg 94%
    22:00 +12°C° 0.2 mm 1 m/s 741 mmHg 96%
    23:00 +12°C° 0 mm 1 m/s 741 mmHg 95%

    Depois de amanhã, 31 Maio, Domingo

    Tempo Temperatura Precipitação Vento Pressão Humidade
    00:00 +11°C° 0 mm 0 m/s 741 mmHg 94%
    01:00 +10°C° 0 mm 0 m/s 741 mmHg 94%
    02:00 +10°C° 0 mm 0 m/s 740 mmHg 94%
    03:00 +10°C° 0 mm 0 m/s 740 mmHg 94%
    04:00 +10°C° 0 mm 0 m/s 740 mmHg 95%
    05:00 +11°C° 0 mm 1 m/s 739 mmHg 94%
    06:00 +10°C° 0 mm 2 m/s 739 mmHg 93%
    07:00 +12°C° 0 mm 2 m/s 739 mmHg 93%
    08:00 +10°C° 0.4 mm 3 m/s 738 mmHg 92%
    09:00 +10°C° 0.4 mm 3 m/s 738 mmHg 92%
    10:00 +8°C° 0.4 mm 4 m/s 738 mmHg 92%
    11:00 +8°C° 0.2 mm 4 m/s 738 mmHg 90%
    12:00 +8°C° 0.2 mm 4 m/s 737 mmHg 89%
    13:00 +8°C° 0.2 mm 4 m/s 737 mmHg 87%
    14:00 +8°C° 1.7 mm 4 m/s 737 mmHg 90%
    15:00 +7°C° 1.7 mm 4 m/s 737 mmHg 92%
    16:00 +7°C° 1.7 mm 4 m/s 737 mmHg 95%
    17:00 +7°C° 2.7 mm 4 m/s 737 mmHg 95%
    18:00 +6°C° 2.7 mm 4 m/s 736 mmHg 96%
    19:00 +6°C° 2.7 mm 4 m/s 736 mmHg 96%
    20:00 +6°C° 2.2 mm 4 m/s 736 mmHg 96%
    21:00 +6°C° 2.2 mm 4 m/s 735 mmHg 96%
    22:00 +6°C° 2.2 mm 4 m/s 735 mmHg 96%
    23:00 +6°C° 2.7 mm 4 m/s 735 mmHg 96%

    1 Junho, Segunda-feira

    Tempo Temperatura Precipitação Vento Pressão Humidade
    00:00 +6°C° 2.7 mm 5 m/s 735 mmHg 96%
    01:00 +6°C° 2.7 mm 5 m/s 735 mmHg 96%
    02:00 +6°C° 0.7 mm 4 m/s 735 mmHg 96%
    03:00 +6°C° 0.7 mm 4 m/s 735 mmHg 96%
    04:00 +6°C° 0.7 mm 4 m/s 735 mmHg 96%
    05:00 +6°C° 0.6 mm 4 m/s 735 mmHg 96%
    06:00 +5°C° 0.6 mm 4 m/s 735 mmHg 96%
    07:00 +5°C° 0.6 mm 3 m/s 735 mmHg 96%
    08:00 +6°C° 0.4 mm 4 m/s 735 mmHg 95%
    09:00 +6°C° 0.4 mm 4 m/s 735 mmHg 94%
    10:00 +6°C° 0.4 mm 4 m/s 736 mmHg 93%
    11:00 +7°C° 0.1 mm 3 m/s 736 mmHg 93%
    12:00 +7°C° 0.1 mm 3 m/s 736 mmHg 93%
    13:00 +7°C° 0.1 mm 3 m/s 736 mmHg 93%
    14:00 +7°C° 0.6 mm 3 m/s 736 mmHg 94%
    15:00 +7°C° 0.6 mm 3 m/s 736 mmHg 95%
    16:00 +7°C° 0.6 mm 2 m/s 736 mmHg 96%
    17:00 +7°C° 0.4 mm 2 m/s 736 mmHg 96%
    18:00 +7°C° 0.4 mm 2 m/s 736 mmHg 97%
    19:00 +7°C° 0.4 mm 2 m/s 736 mmHg 97%
    20:00 +7°C° 0 mm 2 m/s 736 mmHg 97%
    21:00 +7°C° 0 mm 2 m/s 736 mmHg 97%
    22:00 +7°C° 0 mm 2 m/s 736 mmHg 97%
    23:00 +7°C° 0.1 mm 3 m/s 736 mmHg 97%

    2 Junho, Terça-feira

    Tempo Temperatura Precipitação Vento Pressão Humidade
    00:00 +7°C° 0.1 mm 3 m/s 736 mmHg 97%
    01:00 +7°C° 0.1 mm 3 m/s 736 mmHg 97%
    02:00 +7°C° 1.1 mm 3 m/s 735 mmHg 98%
    03:00 +8°C° 1.1 mm 3 m/s 735 mmHg 98%
    04:00 +8°C° 1.1 mm 3 m/s 735 mmHg 98%
    05:00 +8°C° 0.5 mm 2 m/s 735 mmHg 98%
    06:00 +8°C° 0.5 mm 2 m/s 735 mmHg 98%
    07:00 +9°C° 0.5 mm 2 m/s 735 mmHg 97%
    08:00 +10°C° 0.1 mm 2 m/s 735 mmHg 92%
    09:00 +13°C° 0.1 mm 2 m/s 735 mmHg 87%
    10:00 +14°C° 0.1 mm 2 m/s 736 mmHg 81%
    11:00 +15°C° 0.2 mm 2 m/s 736 mmHg 78%
    12:00 +15°C° 0.2 mm 2 m/s 736 mmHg 75%
    13:00 +14°C° 0.2 mm 3 m/s 736 mmHg 72%
    14:00 +15°C° 0.2 mm 2 m/s 736 mmHg 73%
    15:00 +14°C° 0.2 mm 2 m/s 736 mmHg 74%
    16:00 +14°C° 0.2 mm 2 m/s 736 mmHg 75%
    17:00 +14°C° 0.2 mm 2 m/s 736 mmHg 78%
    18:00 +13°C° 0.2 mm 2 m/s 737 mmHg 81%
    19:00 +13°C° 0.2 mm 1 m/s 737 mmHg 83%
    20:00 +12°C° 0.1 mm 1 m/s 737 mmHg 88%
    21:00 +10°C° 0.1 mm 2 m/s 738 mmHg 92%
    22:00 +9°C° 0.1 mm 2 m/s 738 mmHg 96%
    23:00 +8°C° 0 mm 2 m/s 738 mmHg 96%

    3 Junho, Quarta-feira

    Tempo Temperatura Precipitação Vento Pressão Humidade
    00:00 +8°C° 0 mm 2 m/s 738 mmHg 96%
    01:00 +8°C° 0 mm 2 m/s 739 mmHg 96%
    02:00 +8°C° 0 mm 2 m/s 739 mmHg 96%
    03:00 +8°C° 0 mm 2 m/s 739 mmHg 95%
    04:00 +7°C° 0 mm 2 m/s 739 mmHg 95%
    05:00 +8°C° 0 mm 2 m/s 739 mmHg 94%
    06:00 +8°C° 0 mm 2 m/s 739 mmHg 92%
    07:00 +9°C° 0 mm 2 m/s 740 mmHg 91%
    08:00 +9°C° 0.1 mm 3 m/s 740 mmHg 89%
    09:00 +10°C° 0.1 mm 3 m/s 740 mmHg 86%
    10:00 +11°C° 0.1 mm 3 m/s 740 mmHg 84%
    11:00 +11°C° 0.2 mm 3 m/s 740 mmHg 80%
    12:00 +12°C° 0.2 mm 3 m/s 740 mmHg 76%
    13:00 +13°C° 0.2 mm 3 m/s 740 mmHg 72%
    14:00 +13°C° 0.1 mm 3 m/s 740 mmHg 70%
    15:00 +14°C° 0.1 mm 3 m/s 740 mmHg 68%
    16:00 +14°C° 0.1 mm 3 m/s 740 mmHg 66%
    17:00 +14°C° 0.1 mm 2 m/s 740 mmHg 71%
    18:00 +13°C° 0.1 mm 2 m/s 740 mmHg 76%
    19:00 +13°C° 0.1 mm 2 m/s 740 mmHg 81%
    20:00 +10°C° 0 mm 2 m/s 740 mmHg 84%
    21:00 +9°C° 0 mm 2 m/s 740 mmHg 86%
    22:00 +8°C° 0 mm 2 m/s 740 mmHg 89%
    23:00 +7°C° 0 mm 2 m/s 740 mmHg 88%
    Mostrar mais